Regional Weather Roundup
Issued by NWS

Home | Current Version | Previous Version | Graphics & Text | Print | Product List | Glossary On
Versions: 1 2 3 4 5 6 7 8 9 10 11 12 13 14 15 16 17 18 19 20 21 22 23 24 25 26 27 28 29 30 31 32 33 34 35 36 37 38 39 40 41 42 43 44 45 46 47 48 49 50
000
ASUS43 KLOT 251009
RWRIL

ILLINOIS REGIONAL WEATHER ROUNDUP
NATIONAL WEATHER SERVICE CHICAGO/ROMEOVILLE IL
500 AM CDT SUN SEP 25 2016

NOTE: "FAIR" INDICATES FEW OR NO CLOUDS BELOW 12,000 FEET WITH NO
SIGNIFICANT WEATHER AND/OR OBSTRUCTIONS TO VISIBILITY.

* THESE STATIONS ARE NOT UNDER NWS QUALITY CONTROL. THEY ALSO MAY NOT
  REPORT WEATHER SUCH AS PRECIPITATION OR FOG.

ILZ001-002-007-009-015-016-024-251100-
NORTHWEST ILLINOIS

CITY           SKY/WX    TMP DP  RH WIND       PRES   REMARKS
MOLINE         CLOUDY    69  65  86 SE7       30.01F
STERLING*      CLOUDY    67  65  93 SE7       30.05F
SAVANNA*       PTCLDY    67  64  93 SE5       30.03F
$$

ILZ003-004-008-010-011-017-018-251100-
NORTH CENTRAL ILLINOIS

CITY           SKY/WX    TMP DP  RH WIND       PRES   REMARKS
ROCKFORD       CLOUDY    67  64  90 S10       30.07F
FREEPORT*      PTCLDY    65  64  96 SE8       30.07S FOG
ROCHELLE*      CLEAR     66  64  93 SE8       30.08S
DE KALB*       PTCLDY    65  63  93 SE9       30.09S
$$

ILZ005-006-012>014-019>023-251100-
NORTHEAST ILLINOIS

CITY           SKY/WX    TMP DP  RH WIND       PRES   REMARKS
CHICAGO-OHARE  PTCLDY    65  59  81 SE10      30.09F
CHICAGO-MIDWAY PTCLDY    67  58  72 SE7       30.10F
AURORA         CLEAR     66  62  87 SE7       30.09S
LANSING*       PTCLDY    63  60  89 SE9       30.11F
JOLIET*        CLEAR     66  62  88 SE7       30.10S
WAUKEGAN       CLEAR     66  61  84 S10       30.09F
DUPAGE AIRPORT PTCLDY    65  60  84 SE7       30.09F
KANKAKEE*      PTCLDY    64  60  90 E8        30.11S
WHEELING       CLEAR     65  60  84 SE3       30.10F
MORRIS*        CLEAR     65  63  91 SE3       30.08S
ROMEOVILLE*    CLEAR     64  62  93 SE10      30.09F
NORTHERLY ISL    N/A     65  59  81 E8          N/A
$$

LMZ740>746-251100-
SOUTHERN LAKE MICHIGAN

STATION/POSITION SKY/WX   TEMP    WIND        PRES    VSBY  WAVE
                          AIR SEA DIR/SP/G                  HT/PER
                          (F)     (DEG/KT/KT) (MB)    (MI)  (FT/S)
SOUTHERN BUOY              67 72  140/ 17/ 21 1019.4R         3/ 4
WILMETTE HARBOR            67 65  180/ 16/ 19   N/A           4/ 4
HARRISON CRIB              68     160/ 17/ 21   N/A
BURNHAM HARBOR             65     140/  9/ 10   N/A
CALUMET HARBOR             66     150/  6/ 10 1019.3S
BURNS HARBOR               65     140/ 14/ 24 1020.0F
MICHIGAN CITY              63     120/ 13/ 17   N/A
MICHIGAN CITY 6N           63 67  150/ 14/ 17   N/A           1/ 2
ST. JOSEPH                 63 68  120/ 14/ 17 1020.1F         2/ 2
$$

ILZ025>027-034>036-040-047-049-050-058-095>099-251100-
WEST-CENTRAL ILLINOIS

CITY           SKY/WX    TMP DP  RH WIND       PRES   REMARKS
QUINCY         CLOUDY    71  67  87 S8        30.02S
GALESBURG*     CLEAR     67  64  92 E3        30.04S
MACOMB*        PTCLDY    67  66  95 SE7       30.05S FOG
JACKSONVILLE*  CLEAR     73  67  82 S5        30.05S
PITTSFIELD*    CLEAR     68  67  96 CALM      30.05S FOG
$$

ILZ028>032-037-038-041>044-048-051>054-059>061-251100-
CENTRAL ILLINOIS

CITY           SKY/WX    TMP DP  RH WIND       PRES   REMARKS
PONTIAC        CLEAR     66  66 100 SE6       30.09S FOG
BLOOMINGTON    CLEAR     68  66  93 SE9       30.09R
DECATUR        PTCLDY    66  64  93 E3        30.08R FOG
PEORIA         CLEAR     71  68  90 SE3       30.05S
LACON*         CLEAR     66  64  96 CALM      30.05S FOG
LINCOLN*       PTCLDY    68  66  94 SE3       30.06S FOG
SPRINGFIELD    CLEAR     68  64  87 SE7       30.05F
TAYLORVILLE    CLEAR     67  65  94 CALM      30.07R
$$

ILZ033-039-045-046-055>057-062-063-251100-
EAST-CENTRAL ILLINOIS

CITY           SKY/WX    TMP DP  RH WIND       PRES   REMARKS
CHAMPAIGN      CLEAR     66  64  93 E7        30.09S FOG
RANTOUL*       CLEAR     67  66  96 E3        30.10S FOG
MATTOON        CLEAR     69  66  90 SE6       30.07S FOG
PARIS*           N/A     65  65 100 CALM      30.11R FOG
$$

ILZ079-100>102-251100-
SOUTHWEST ILLINOIS

CITY           SKY/WX    TMP DP  RH WIND       PRES   REMARKS
ALTON          CLEAR     66  65  98 E3        30.05S FOG
BELLEVILLE     CLEAR     68  68 100 CALM      30.04S
CAHOKIA*       CLEAR     69  66  90 CALM      30.04S FOG
SPARTA*        CLEAR     70  69  96 SE5       30.06S
$$

ILZ064>066-069>071-074>076-080>082-084>086-088>090-092>094-251100-
SOUTH-CENTRAL ILLINOIS

CITY           SKY/WX    TMP DP  RH WIND       PRES   REMARKS
CARBONDALE     FOG       67  67 100 CALM      30.06R VSB 1/4
CAIRO*         PTCLDY    66  66  99 CALM      30.05S FOG
EFFINGHAM*     CLEAR     66  66 100 E3        30.08S FOG
MARION         CLEAR     72  70  94 CALM      30.07S
MT. VERNON     CLEAR     64  59  82 CALM      30.07S
CENTRALIA*     CLEAR     66  66 100 CALM      30.05S FOG
SALEM*         CLEAR     70  66  88 CALM      30.07R
METROPOLIS*    CLEAR     67  67  99 CALM      30.06S FOG
$$

ILZ067-068-072-073-078-083-087-091-251100-
SOUTHEAST ILLINOIS

CITY           SKY/WX    TMP DP  RH WIND       PRES   REMARKS
LAWRENCEVILLE  CLEAR     66  64  93 NE3       30.08F FOG
FLORA*         CLEAR     65  65  97 CALM      30.07S FOG
FAIRFIELD*       N/A     68  66  94 CALM      30.06S
HARRISBURG*    CLEAR     66  66 100 CALM      30.07S FOG
ROBINSON*      FOG       61  61 100 CALM      30.09S VSB 1/4
CARMI*         CLEAR     64  64 100 CALM      30.07S FOG
$$

ABBREVIATIONS USED IN REMARKS
   TC - TEMPERATURE IN CELSIUS
  WCI - WIND CHILL INDEX
   HX - HEAT INDEX
  VSB - VISIBILITY
$$




USA.gov is the U.S. government's official web portal to all federal, state and local government web resources and services.